Location: Unspecified
(44.7549°N, 0.0000°E)
Time: 07:12:05
(UTC+00:00)

deb Delta - Visible Passes

Search period start: 04 April 2026 00:00
Search period end: 14 April 2026 00:00
Orbit: 1090 x 1468 km, 99.8° (Epoch: 29 March)

Date Brightness Start Highest point End Pass type
(mag) Time Alt. Az. Time Alt. Az. Time Alt. Az.
4 Apr ? 00:35:06 19° WNW 00:35:06 19° WNW 00:39:32 10° NW visible
4 Apr ? 20:58:04 24° ENE 21:00:12 27° NE 21:06:37 10° N visible
4 Apr ? 22:49:15 79° WNW 22:49:15 79° WNW 22:57:03 10° NNW visible
5 Apr ? 00:40:26 18° WNW 00:40:26 18° WNW 00:44:34 10° NW visible
5 Apr ? 21:03:23 26° E 21:05:27 29° ENE 21:12:02 10° N visible
5 Apr ? 22:54:35 75° WNW 22:54:35 75° WNW 23:02:21 10° NNW visible
6 Apr ? 00:45:45 16° WNW 00:45:45 16° WNW 00:49:33 10° NW visible
6 Apr ? 21:08:43 28° E 21:10:43 31° ENE 21:17:26 10° N visible
6 Apr ? 22:59:54 70° W 22:59:54 70° W 23:07:39 10° NNW visible
7 Apr ? 00:51:05 15° WNW 00:51:05 15° WNW 00:54:26 10° NW visible
7 Apr ? 21:14:02 30° E 21:15:58 33° ENE 21:22:50 10° N visible
7 Apr ? 23:05:14 66° W 23:05:14 66° W 23:12:57 10° NNW visible
8 Apr ? 00:56:24 13° WNW 00:56:24 13° WNW 00:59:12 10° WNW visible
8 Apr ? 21:19:22 32° E 21:21:14 35° ENE 21:28:13 10° N visible
8 Apr ? 23:10:33 61° W 23:10:33 61° W 23:18:13 10° NNW visible
9 Apr ? 01:01:44 12° WNW 01:01:44 12° WNW 01:03:45 10° WNW visible
9 Apr ? 21:24:42 34° E 21:26:30 38° ENE 21:33:35 10° N visible
9 Apr ? 23:15:53 57° W 23:15:53 57° W 23:23:30 10° NNW visible
10 Apr ? 01:07:03 10° WNW 01:07:03 10° WNW 01:07:34 10° WNW visible
10 Apr ? 21:30:01 36° E 21:31:46 40° ENE 21:38:58 10° N visible
10 Apr ? 23:21:12 53° W 23:21:12 53° W 23:28:45 10° NNW visible
11 Apr ? 19:48:16 10° NE 19:49:33 10° NE 19:50:49 10° NNE visible
11 Apr ? 21:35:21 39° E 21:37:03 43° ENE 21:44:20 10° N visible
11 Apr ? 23:26:32 49° W 23:26:32 49° W 23:34:01 10° NNW visible
12 Apr ? 19:52:33 10° ENE 19:54:43 11° NE 19:56:51 10° NNE visible
12 Apr ? 21:40:40 41° E 21:42:19 46° ENE 21:49:41 10° N visible
12 Apr ? 23:31:51 45° W 23:31:51 45° W 23:39:15 10° NNW visible
13 Apr ? 19:57:06 10° ENE 19:59:53 12° NE 20:02:38 10° NNE visible
13 Apr ? 21:46:00 44° E 21:47:37 49° ENE 21:55:03 10° N visible
13 Apr ? 23:37:11 42° W 23:37:11 42° W 23:44:29 10° NNW visible
